Location: *
(50.5492°N, 7.7469°E)
Time: 04:30:04
(UTC+00:00)

Meteor 1-11 - Pass Details

Date: 21 October 2019
Orbit: 842 x 885 km, 81.2° (Epoch: 17 November)

Event Time Altitude Azimuth Distance (km) Brightness Sun altitude
Rises 16:59:18 0° 349° (N) 3,474 7.4 -6.0°
Reaches altitude 10° 17:01:48 10° 353° (N) 2,538 6.7 -6.4°
Maximum altitude 17:07:30 59° 73° (ENE) 1,012 4.3 -7.3°
Drops below altitude 10° 17:13:13 10° 153° (SSE) 2,540 6.5 -8.2°
Sets 17:15:42 0° 157° (SSE) 3,477 7.2 -8.6°
